www.pogodaiklimat.ru

Погода и климат >> Архив погоды >> Франция >> Париж Орли аэропорт


ПОГОДА в Париж Орли аэропорту

  • Прогноз погоды в Париж Орли аэропорту
  • Монитор погоды в Париж Орли аэропорту

АРХИВ ПОГОДЫ в Париж Орли аэропорту

Время (UTC), дата Ветер
(напр.,м/с)
 
Видим.   Явления Облачность Т
(С)
Тd
(С)
f
(%)
Тe
(С)
Тes
(С)
Комфортность P
(гПа)
Po
(гПа)
Тmin
(С)
Tmax
(С)
R
(мм)
R24
(мм)
S
(см)
19 8.09 С 2 40 км 1/0
[Ac trans]
+14.4 +5.7 56 +14 +14 по сезону 1020.7 1009.9
20 8.09 С 1 40 км 1/0
[Ac trans]
+13.1 +6.7 65 +13 +13 прохладно 1021.2 1010.3
21 8.09 СВ 3
{6}
40 км 1/1 2000 м
[Sc Ci fib]
+13.1 +6.9 66 +12 +12 прохладно 1021.1 1010.2
22 8.09 С 1 40 км 1/1 2000 м
[Sc Ci fib]
+11.8 +6.9 72 +13 +13 тепло 1021.0 1010.1
23 8.09 З 1 40 км 1/0
[]
+11.1 +7.2 77 +11 +11 по сезону 1020.6 1009.7
00 9.09 З 3
{3}
40 км 1/0
[Ci fib]
+9.5 +6.9 84 +7 +7 холодно 1020.5 1009.5
01 9.09 З 1 40 км 1/0
[]
+8.9 +6.5 85 +9 +9 по сезону 1020.0 1009.0
02 9.09 З 1 45 км 3/0
[]
+7.8 +6.1 89 +7 +7 прохладно 1019.6 1008.6
03 9.09 З 2
{2}
40 км 4/0
[Ci sp]
+7.7 +6.6 93 +6 +6 холодно 1019.1 1008.1
04 9.09 ЮЗ 1 40 км 5/0
[]
+7.6 +6.4 92 +8 +8 по сезону 1018.8 1007.8
05 9.09 ЮВ 1 40 км 6/0
[Ac trans]
+8.3 +7.4 94 +8 +8 по сезону 1018.4 1007.4
06 9.09 Ю 1
{2}
20 км 8/1 1380 м
[Cu med, cong Ac As]
+9.0 +7.6 91 +8 +8 прохладно 1018.3 1007.3 +7.4 +16.0
07 9.09 Ю 1 20 км 9/4 1380 м
[Cu med, cong Ac As]
+9.8 +7.6 86 +10 +11 прохладно 1018.0 1007.1
08 9.09 Ю 1 19 км 9/1 1380 м
[Cu med, cong Ac trans Cs]
+11.1 +8.0 81 +12 +14 прохладно 1017.6 1006.7
09 9.09 Ю 3
{5}
20 км 9/1 1380 м
[Cu med, cong Ac trans Cs]
+13.9 +8.1 68 +13 +16 прохладно 1017.4 1006.6
10 9.09 Ю 2 35 км н/о +16.4 +7.3 55 +17 +17 прохладно 1016.6 1005.9
11 9.09 Ю 2 30 км 9/1 2000 м
[Cu hum Ac und Ci fib]
+17.5 +6.7 49 +18 +24 прохладно 1015.7 1005.1
12 9.09 ЮЗ 5
{9}
20 км 9/3 1380 м
[Cu med, cong Ac trans Ci fib]
+18.5 +5.7 43 +18 +21 по сезону 1014.8 1004.2
13 9.09 Ю 3 24 км 9/4 1500 м
[Cu med, cong Ac trans Ci sp]
+19.6 +4.5 37 +20 +24 по сезону 1014.0 1003.5
14 9.09 ЮЗ 3 25 км 9/4 1500 м
[Cu med, cong Ac trans Ci sp]
+19.2 +3.4 35 +20 +22 по сезону 1013.5 1002.9
15 9.09 ЮЗ 5
{8}
40 км 9/0 2000 м
[]
+19.6 +3.7 35 +20 +21 тепло 1013.0 1002.5 0
16 9.09 ЮЗ 1 25 км 9/6 1500 м
[Cu Sc Ac As]
+18.7 +4.8 40 +20 +21 тепло 1012.8 1002.2
17 9.09 ЮЗ 2 25 км 9/6 1500 м
[Cu Sc Ac As]
+18.1 +5.3 43 +19 +19 по сезону 1012.9 1002.3
18 9.09 Ю 2
{6}
25 км 9/4 1500 м
[Cu Sc Ac As]
+17.2 +6.4 49 +18 +18 по сезону 1012.9 1002.3 +9.1 +21.1
19 9.09 ЮВ 1 35 км 9/9 2000 м
[Sc]
+16.5 +6.6 52 +18 +18 тепло 1013.0 1002.4
20 9.09 ЮВ 1 25 км 9/9 2000 м
[Sc]
+15.7 +7.5 58 +16 +16 по сезону 1013.3 1002.6
21 9.09 ЮВ 2
{3}
25 км 9/4 2000 м
[Sc Ac As]
+15.3 +7.8 61 +16 +16 по сезону 1013.2 1002.5
22 9.09 З 3 60 км 9/9 2000 м
[]
+14.4 +7.2 62 +14 +14 тепло 1014.0 1003.3
23 9.09 З 1 25 км 9/0
[Ac trans]
+13.6 +7.1 65 +14 +14 тепло 1014.2 1003.4
00 10.09 СВ 2
{3}
25 км 9/4 2000 м
[Sc Ac trans Ci fib]
+12.4 +7.1 70 +12 +12 по сезону 1014.2 1003.4
01 10.09 З 1 35 км 9/3 2000 м
[Sc Ci fib]
+12.1 +6.6 69 +13 +13 тепло 1014.2 1003.4
02 10.09 Ю 1 45 км 3/3 2000 м
[Sc]
+11.7 +7.4 75 +12 +12 по сезону 1014.7 1003.9
03 10.09 С 1
{2}
25 км ясно +9.5 +6.8 83 +9 +9 прохладно 1014.9 1004.0
04 10.09 С 1 9000 м н/о +9.8 +7.0 83 +10 +10 по сезону 1015.0 1004.1
05 10.09 С 1 10 км 1/0
[Ac trans]
+9.6 +7.0 84 +9 +9 по сезону 1015.3 1004.4
06 10.09 С 2
{6}
25 км 1/0
[Ac trans]
+10.7 +7.4 80 +10 +10 по сезону 1016.2 1005.3 +9.2 +17.2
07 10.09 С 1 25 км 1/0
[Ac trans]
+13.8 +8.6 71 +15 +16 по сезону 1016.8 1006.0
08 10.09 С 1 25 км ясно +15.9 +8.4 61 +17 +21 тепло 1017.2 1006.5
09 10.09 СВ 4
{7}
25 км ясно +17.9 +8.2 53 +18 +22 тепло 1017.6 1007.0
10 10.09 СВ 2 25 км ясно +20.0 +6.3 41 +21 +30 комфорт 1018.2 1007.6
11 10.09 СВ 2 25 км 1/1 1500 м
[Cu Sc]
+21.1 +6.2 38 +22 +32 комфорт 1018.5 1008.0
12 10.09 С 4
{7}
25 км 1/1 1500 м
[Cu Sc]
+21.7 +4.3 32 +22 +29 комфорт 1018.5 1008.0
13 10.09 СВ 2 55 км н/о +21.5 +4.1 32 +22 +22 комфорт 1018.7 1008.2
14 10.09 С 2 19 км 3/3 2000 м
[Cu hum]
+22.7 +4.2 30 +23 +28 комфорт 1018.6 1008.1
15 10.09 С 4
{9}
35 км 3/3 2000 м
[Cu hum]
+22.7 +5.1 32 +23 +26 комфорт 1018.6 1008.1
16 10.09 С 2 40 км 1/1 2000 м
[Cu hum]
+22.0 +4.5 32 +22 +25 комфорт 1018.6 1008.1
17 10.09 СВ 2 35 км 1/1 2000 м
[Cu hum]
+21.4 +4.5 33 +22 +22 комфорт 1019.2 1008.7
18 10.09 СВ 4
{7}
35 км 1/1 2000 м
[Sc]
+19.9 +4.8 37 +21 +21 комфорт 1019.9 1009.3 +10.7 +22.9
19 10.09 СВ 1 2300 м 1/1 2000 м
[Sc Ci fib]
+18.0 +5.2 43 +19 +19 тепло 1020.5 1009.8
20 10.09 СВ 1 20 км 1/0
[]
+16.0 +5.3 49 +17 +17 тепло 1021.2 1010.5
21 10.09 С 4
{8}
20 км 1/0
[Ac trans Ci fib]
+16.4 +6.8 53 +16 +16 по сезону 1022.2 1011.5
22 10.09 С 1 20 км 1/0
[]
+16.1 +7.3 56 +17 +17 тепло 1022.4 1011.6
23 10.09 СЗ 2 55 км 1/0
[]
+14.2 +7.3 63 +14 +14 тепло 1022.7 1011.9
00 11.09 З 2
{3}
20 км ясно +13.2 +7.0 66 +13 +13 по сезону 1023.1 1012.2
01 11.09 З 1 30 км н/о +13.0 +7.7 70 +14 +14 тепло 1023.0 1012.1
02 11.09 З 1 19 км 8/0
[Ac trans Ci fib]
+13.4 +8.7 73 +14 +14 тепло 1023.0 1012.1
03 11.09 З 2
{3}
20 км 9/0
[Ac trans]
+13.3 +9.0 75 +13 +13 по сезону 1023.3 1012.4
04 11.09 З 1 30 км 9/0
[Ac trans]
+13.0 +9.3 78 +14 +14 тепло 1023.5 1012.6
05 11.09 З 1 20 км 9/0
[Ac trans]
+13.0 +9.4 79 +13 +13 тепло 1024.1 1013.2
06 11.09 З 2
{3}
20 км 10/0
[Ac trans]
+13.5 +9.9 79 +13 +13 по сезону 1024.3 1013.4 +12.5 +19.9
07 11.09 З 2 19 км 10/0
[Ac trans]
+14.3 +10.7 79 +14 +15 по сезону 1024.8 1014.0
08 11.09 ЮЗ 2 19 км 10/0
[Ac trans]
+15.1 +11.1 77 +15 +17 по сезону 1025.3 1014.5
09 11.09 З 5
{7}
20 км 8/0
[Ac trans]
+17.4 +11.2 67 +17 +19 тепло 1025.6 1014.9
10 11.09 З 2 50 км н/о +18.0 +10.8 63 +19 +19 по сезону 1025.8 1015.1
11 11.09 ЮЗ 3 35 км 8/3 2000 м
[Sc Ac trans Ci fib]
+20.4 +9.9 51 +22 +27 комфорт 1025.2 1014.6
12 11.09 ЮЗ 5
{11}
20 км 3/1 2000 м
[Sc Ac trans]
+22.5 +9.3 43 +24 +28 комфорт 1025.0 1014.5
13 11.09 З 3 16 км 3/1 2000 м
[Cu hum Ac trans]
+23.5 +8.7 39 +24 +31 комфорт 1024.9 1014.4
14 11.09 З 3 16 км 3/1 2000 м
[Cu hum Ac trans]
+24.0 +8.0 36 +24 +29 комфорт 1024.6 1014.1
15 11.09 З 4
{9}
20 км 8/8 2000 м
[Sc]
+24.1 +7.7 35 +24 +25 комфорт 1024.8 1014.3
16 11.09 З 2 20 км 4/4 1500 м
[Sc]
+24.5 +6.7 32 +25 +26 комфорт 1024.9 1014.4
17 11.09 З 3 20 км 6/4 1500 м
[Sc Ci fib]
+23.5 +10.2 43 +25 +25 комфорт 1025.2 1014.7
18 11.09 З 3
{8}
20 км 5/3 1500 м
[Sc Ci fib]
+21.7 +10.2 48 +23 +23 комфорт 1025.5 1014.9 +13.5 +24.8
19 11.09 З 1 25 км 5/4 1500 м
[Sc Ci fib]
+20.4 +10.5 53 +23 +23 комфорт 1026.1 1015.5
20 11.09 З 1 25 км 3/3 1500 м
[Sc]
+19.5 +10.5 56 +22 +22 комфорт 1026.7 1016.0
21 11.09 З 2
{8}
25 км 1/1 1500 м
[Sc]
+18.1 +10.9 63 +19 +19 тепло 1027.3 1016.6
22 11.09 З 1 60 км 1/1 1500 м
[Sc]
+17.4 +12.1 71 +18 +18 тепло 1027.6 1016.9
23 11.09 ЮЗ 2 55 км 6/6 1260 м
[Sc]
+17.2 +11.9 71 +18 +18 тепло 1027.9 1017.1
00 12.09 ЮЗ 3
{5}
25 км 9/9 1300 м
[Sc]
+17.3 +12.6 74 +17 +17 тепло 1028.3 1017.5
01 12.09 ЮЗ 2 25 км 6/6 1380 м
[Sc]
+17.8 +13.7 77 +19 +19 тепло 1028.6 1017.9
02 12.09 Ю 1 25 км 3/3 1380 м
[Sc]
+16.4 +13.3 82 +18 +18 тепло 1028.8 1018.0
03 12.09 ЮЗ 3
{4}
25 км 4/4 1000 м
[Sc]
+15.6 +12.9 84 +15 +15 тепло 1028.7 1017.9
04 12.09 ЮЗ 1 25 км 8/8 1050 м
[Sc]
+15.8 +13.3 85 +16 +16 тепло 1028.8 1018.0
05 12.09 ЮЗ 1 25 км 8/8 1080 м
[Sc]
+15.5 +12.8 84 +16 +16 тепло 1029.3 1018.5
06 12.09 ЮЗ 2
{5}
30 км 8/8 1080 м
[Sc]
+15.4 +12.7 84 +15 +15 тепло 1029.8 1019.0 +15.4 +21.7
07 12.09 З 1 40 км 8/8 480 м
[Sc]
+16.5 +13.2 81 +17 +18 тепло 1030.4 1019.6
08 12.09 ЮЗ 1 35 км 9/9 450 м
[Sc]
+18.0 +13.9 77 +19 +20 тепло 1030.9 1020.2
09 12.09 З 3
{6}
30 км 9/9 480 м
[Sc]
+20.3 +15.3 73 +23 +24 комфорт 1031.4 1020.7
10 12.09 З 1 35 км 9/9 630 м
[Cu Sc]
+21.1 +15.4 70 +24 +25 комфорт 1031.8 1021.2
11 12.09 З 1 50 км 9/9 720 м
[Cu Sc]
+22.5 +15.8 66 +27 +28 душно 1031.6 1021.0
12 12.09 СЗ 2
{6}
35 км 9/9 800 м
[Cu Sc]
+23.4 +16.0 63 +28 +29 душно 1031.2 1020.7
13 12.09 СЗ 1 22 км 9/9 960 м
[Cu Sc]
+23.1 +15.7 63 +27 +29 душно 1031.4 1020.8
14 12.09 ЮЗ 1 50 км 9/9 930 м
[Cu Sc]
+23.3 +16.1 64 +28 +29 душно 1031.2 1020.6
15 12.09 В 1
{5}
35 км 9/9 1050 м
[Cu Sc]
+23.9 +15.9 61 +27 +28 жарко 1030.8 1020.3
16 12.09 СЗ 1 35 км 9/9 1110 м
[Sc]
+23.4 +16.0 63 +28 +28 душно 1030.7 1020.2
17 12.09 В 1 35 км 9/9 1140 м
[Sc]
+23.2 +15.8 63 +28 +28 душно 1031.0 1020.4
18 12.09 штиль 0
{2}
35 км 9/9 1140 м
[Sc]
+22.8 +15.9 65 +27 +27 душно 1031.0 1020.4 +15.4 +24.7
19 12.09 СЗ 2 35 км 9/9 1170 м
[Sc]
+22.1 +15.9 68 +26 +26 душно 1031.2 1020.6
20 12.09 С 2 35 км 9/9 1170 м
[Sc]
+21.9 +15.7 68 +26 +26 душно 1031.6 1021.0
21 12.09 С 3
{12}
60 км 10/10 1000 м
[]
+20.8 +16.4 76 +25 +25 комфорт 1031.9 1021.3 0
22 12.09 С 1 35 км 5/5 1170 м
[Sc]
+19.7 +16.3 81 +23 +23 комфорт 1032.1 1021.4
23 12.09 СЗ 1 35 км 1/1 1170 м
[Sc]
+17.9 +15.3 85 +19 +19 тепло 1032.3 1021.5
00 13.09 СЗ 2
{3}
35 км ясно +17.0 +15.2 89 +18 +18 тепло 1032.4 1021.6
01 13.09 СЗ 1 35 км ясно +16.4 +14.9 91 +18 +18 тепло 1032.1 1021.3
02 13.09 З 1 35 км ясно +15.7 +14.4 92 +16 +16 тепло 1032.0 1021.2
03 13.09 З 1
{2}
35 км 9/9 960 м
[Sc]
+15.8 +15.0 95 +16 +16 тепло 1032.1 1021.3
04 13.09 З 1 35 км 9/9 960 м
[Sc]
+16.6 +15.3 92 +17 +17 тепло 1032.4 1021.6
05 13.09 СЗ 1 30 км 9/9 1080 м
[Sc]
+17.1 +15.4 90 +18 +18 тепло 1032.6 1021.8
06 13.09 СЗ 2
{4}
30 км 9/9 400 м
[Sc]
+17.2 +15.2 88 +18 +18 тепло 1032.8 1022.0 +15.4 +22.8
07 13.09 С 2 20 км 9/9 420 м
[Sc]
+18.1 +15.0 82 +19 +19 тепло 1033.1 1022.3
08 13.09 СЗ 2 20 км 9/9 420 м
[Sc]
+18.3 +15.0 81 +19 +20 тепло 1033.8 1023.0
09 13.09 СЗ 2
{7}
20 км 9/9 480 м
[Sc]
+18.7 +14.6 77 +20 +21 тепло 1034.1 1023.3
10 13.09 С 1 25 км 9/9 540 м
[Sc]
+19.6 +14.8 74 +23 +24 комфорт 1033.5 1022.8
11 13.09 С 2 17 км 9/9 630 м
[Sc]
+20.3 +14.9 71 +24 +25 комфорт 1033.3 1022.6
12 13.09 С 3
{6}
25 км 9/9 750 м
[Sc]
+21.2 +15.1 68 +24 +25 комфорт 1033.0 1022.4
13 13.09 С 1 12 км 6/6 800 м
[Sc]
+21.8 +14.7 64 +25 +30 комфорт 1032.6 1022.0
14 13.09 С 2 30 км 4/4 900 м
[Sc]
+22.7 +14.5 60 +26 +31 жарко 1032.6 1022.0
15 13.09 СВ 4
{7}
30 км 3/3 1050 м
[Sc]
+23.5 +14.5 57 +26 +28 жарко 1032.1 1021.5
16 13.09 СВ 3 30 км 3/3 1110 м
[Sc]
+23.6 +13.5 53 +26 +27 жарко 1031.8 1021.2
17 13.09 СВ 3 30 км 4/4 1140 м
[Sc]
+22.9 +13.9 57 +26 +27 жарко 1031.7 1021.1
18 13.09 СВ 5
{8}
30 км 1/1 1080 м
[Sc Ci fib]
+21.6 +14.0 62 +24 +24 комфорт 1031.7 1021.1 +17.2 +23.8
19 13.09 СВ 2 30 км 1/0
[]
+20.5 +14.8 70 +24 +24 комфорт 1031.9 1021.2
20 13.09 СВ 2 30 км 1/0
[]
+19.2 +14.7 75 +21 +21 комфорт 1032.3 1021.6
21 13.09 СВ 4
{7}
30 км 1/0
[Ci fib]
+18.7 +14.8 78 +20 +20 тепло 1032.5 1021.8
22 13.09 СВ 2 40 км 1/0
[]
+17.8 +14.5 81 +19 +19 тепло 1032.5 1021.7
23 13.09 СВ 2 35 км 1/0
[]
+17.1 +14.4 84 +17 +17 тепло 1032.3 1021.5
00 14.09 СВ 5
{7}
30 км 1/1 480 м
[Cu hum Ac trans]
+17.0 +14.8 87 +16 +16 тепло 1032.2 1021.4
01 14.09 СВ 3 28 км ясно +16.3 +14.0 86 +16 +16 тепло 1031.4 1020.6
02 14.09 СВ 2 23 км ясно +15.6 +13.3 86 +15 +15 тепло 1031.6 1020.8
03 14.09 СВ 2
{7}
20 км ясно +15.0 +12.9 87 +15 +15 тепло 1031.6 1020.7
04 14.09 СВ 2 14 км ясно +14.5 +12.5 88 +14 +14 тепло 1031.1 1020.2
05 14.09 СВ 2 20 км ясно +14.3 +12.5 89 +14 +14 тепло 1031.4 1020.5
06 14.09 С 4
{7}
15 км 3/0
[Ci fib]
+14.2 +12.4 89 +13 +13 тепло 1031.6 1020.7 +14.0 +21.6
07 14.09 СВ 2 15 км 4/0
[]
+15.1 +12.8 86 +15 +16 тепло 1031.7 1020.8
08 14.09 СВ 2 9000 м н/о +17.2 +13.3 78 +18 +18 тепло 1031.5 1020.7
09 14.09 СВ 4
{6}
17 км 9/0
[Ci fib]
+18.6 +13.7 73 +19 +22 тепло 1031.1 1020.4
10 14.09 СВ 2 11 км 8/0
[]
+20.4 +14.5 69 +24 +28 комфорт 1030.9 1020.2
11 14.09 СВ 2 20 км 8/0
[]
+22.1 +14.5 62 +25 +31 комфорт 1029.9 1019.3
12 14.09 СВ 6
{10}
19 км н/о +24.0 +14.1 54 +26 +26 жарко 1029.3 1018.8 0
13 14.09 СВ 2 18 км 5/1 1200 м
[Cu hum Ci fib]
+25.0 +14.8 53 +28 +35 жарко 1028.6 1018.1
14 14.09 СВ 2 19 км н/о +25.8 +14.0 48 +28 +28 жарко 1028.0 1017.6
15 14.09 В 4
{7}
30 км 1/0
[Ci fib]
+26.4 +13.2 44 +28 +31 жарко 1027.4 1017.0
16 14.09 СВ 2 30 км 1/0
[]
+26.1 +12.5 43 +28 +30 жарко 1026.8 1016.4
17 14.09 СВ 3 30 км 1/0
[]
+25.3 +11.5 42 +27 +27 жарко 1026.7 1016.2
18 14.09 СВ 4
{6}
30 км 1/0
[Ci fib]
+23.6 +11.6 47 +25 +25 комфорт 1026.8 1016.3 +14.2 +26.5
19 14.09 СВ 2 30 км 1/0
[]
+21.7 +11.4 52 +24 +24 комфорт 1027.1 1016.5
20 14.09 СВ 2 30 км 1/0
[]
+20.9 +12.1 57 +24 +24 комфорт 1027.2 1016.6
21 14.09 СВ 4
{7}
30 км 1/0
[Ci fib]
+19.9 +11.6 59 +22 +22 комфорт 1026.9 1016.3
22 14.09 С 1 30 км 1/0
[]
+18.9 +11.5 62 +21 +21 комфорт 1026.9 1016.2
23 14.09 С 2 30 км 1/0
[]
+16.8 +11.1 69 +17 +17 тепло 1026.8 1016.0
00 15.09 С 2
{4}
30 км 1/0
[Ci fib]
+16.8 +11.1 69 +17 +17 тепло 1026.5 1015.7
01 15.09 С 1 40 км 1/0
[]
+15.8 +10.8 72 +17 +17 тепло 1026.1 1015.3
02 15.09 С 1 35 км ясно +15.5 +10.7 73 +16 +16 тепло 1025.8 1015.0
03 15.09 С 1
{3}
30 км ясно +14.9 +10.5 75 +16 +16 тепло 1025.4 1014.6
04 15.09 СЗ 1 25 км ясно +13.8 +10.0 78 +15 +15 тепло 1025.3 1014.4
05 15.09 С 1 30 км ясно +13.5 +10.3 81 +14 +14 тепло 1025.5 1014.6
06 15.09 С 1
{5}
30 км 1/0
[Ci fib]
+13.1 +10.5 84 +13 +13 тепло 1025.7 1014.8 +12.8 +23.6
07 15.09 С 1 22 км ясно +17.1 +11.8 71 +18 +19 тепло 1025.4 1014.7
08 15.09 С 1 19 км ясно +19.6 +11.9 61 +23 +26 комфорт 1025.6 1015.0
09 15.09 СВ 2
{5}
30 км ясно +21.7 +11.4 52 +24 +29 комфорт 1025.6 1015.0
10 15.09 СВ 2 35 км ясно +24.0 +11.3 45 +25 +33 комфорт 1025.4 1014.9
11 15.09 СВ 2 35 км ясно +25.1 +10.9 41 +26 +37 жарко 1024.9 1014.5
12 15.09 СВ 3
{6}
35 км ясно +26.1 +9.9 36 +27 +35 жарко 1024.3 1013.9
13 15.09 С 1 40 км ясно +26.8 +10.1 35 +27 +38 жарко 1023.7 1013.3
14 15.09 С 2 35 км ясно +27.1 +9.9 34 +28 +35 жарко 1023.1 1012.7
15 15.09 С 3
{7}
35 км ясно +27.1 +9.4 33 +27 +31 жарко 1022.4 1012.0
17 15.09 С 1 45 км 1/0
[]
+26.3 +9.2 34 +27 +27 жарко 1021.8 1011.4
18 15.09 СВ 3
{5}
35 км 1/0
[Ci fib]
+24.1 +8.5 37 +25 +25 комфорт 1022.0 1011.5 +13.1 +27.7
19 15.09 СВ 2 35 км 1/0
[]
+21.7 +8.6 43 +23 +23 комфорт 1022.2 1011.7

 

Местоположение метеостанции Париж Орли аэропорт (Франция): широта 48.72 долгота 2.38 высота над уровнем моря 90 м.

В архиве по умолчанию представлена погода в Париж Орли аэропорту за последнюю неделю. Архивные данные за месяц целиком и за предыдущие месяцы, начиная с января 2011 года, Вы можете получить, выбрав интересующий диапазон дат из раскрывающегося списка и нажав кнопку "Ввод!".


*Определитесь, кто Вы:
робот инопланетянин человек

Внимание! Время в таблицах - всемирное. Для получения местного времени необходимо прибавить поправку, которая равна 1 ч.

Смотрите также архив погоды в соседних городах и на ближайших метеорологических станциях:

Погода в Париже (Франция) (12 км)
Погода в Велизи-Вилакубле (Франция) (14 км)
Погода в Мелене (Франция) (25 км)
Погода в Ле-Бурже (Франция) (28 км)
Погода в Трапе (Франция) (28 км)
Погода в Аэропорту Шарль де Голль (Франция) (35 км)
Погода в Кормее (Франция) (48 км)
Погода в Крее (Франция) (60 км)
Погода в Шартре (Франция) (70 км)
Погода в Бове (Франция) (86 км)

Пояснения к столбцам:

Ветер - указаны скорость ветра в м/с - средняя за 10 мин, порывы в срок и между сроками (в фигурных скобках) и направление, откуда дует ветер: С - северный, СВ - северо-восточный, В - восточный, ЮВ - юго-восточный, Ю - южный, ЮЗ - юго-западный, З - западный, СЗ - северо-западный.
Видимость - горизонтальная дальность видимости в метрах или километрах. При видимости от 1 до 10 км при отсутствии осадков обычно наблюдается дымка, при ухудшении видимости до 1 км и менее - туман. В сухую погоду видимость может ухудшаться дымом, пылью или мглою.
Явления - указаны атмосферные явления, наблюдавшиеся в срок или в последний час перед сроком; фигурными скобками обозначены явления, наблюдавшиеся между сроками (за 1-3 часа до срока); квадратными скобками обозначены град или гололедные отложения с указанием их диаметра в мм.
Облачность - указаны через наклонную черту общая и нижняя облачность в баллах и высота нижней границы облаков в метрах; квадратными скобками обозначены формы облаков: Ci - перистые, Cs - перисто-слоистые, Cc - перисто-кучевые, Ac - высококучевые, As - высокослоистые, Sc - слоисто-кучевые, Ns - слоисто-дождевые, Cu - кучевые, Cb - кучево-дождевые. Подробнее классификацию облаков см. в Атласе облаков (PDF).
T - Температура воздуха - температура, измеренная на высоте 2 м над землей.
Td - Температура точки росы - температура, при понижении до которой содержащийся в воздухе водяной пар достигнет насыщения.
f - Относительная влажность воздуха - влажноcть воздуха, измеренная на высоте 2 м над землей.
Te - Эффективная температура - температура, которую ощущает одетый по сезону человек в тени. Характеристика душности погоды. При расчете учитывается влияние влажности воздуха и скорости ветра на теплоощущения человека.
Tes - Эффективная температура на солнце - температура, которую ощущает человек, с поправкой на солнечный нагрев. Характеристика знойности погоды. Зависит от высоты солнца над горизонтом, облачности и скорости ветра. Ночью, в пасмурную погоду, а также при ветре 12 м/с и более поправка равна нулю.
P - Атмосферное давление - приведенное к уровню моря атмосферное давление.
Po - Атмосферное давление - измеренное на уровне метеостанции атмосферное давление.
Tmin - Минимальная температура - минимум температуры воздуха на высоте 2 м над землей.
Tmax - Максимальная температура - максимум температуры воздуха на высоте 2 м над землей.
R - Количество осадков - Количество выпавших осадков за период времени, мм. При наведении курсора мыши на число - период времени, за который выпало указанное количество осадков.
R24 - Количество осадков - Количество выпавших осадков за 24 часа, мм.
S - Снежный покров - Высота снежного покрова, см. При наведении курсора мыши на число - состояние снежного покрова и степень покрытия местности в баллах.